Regional Weather Roundup
Issued by NWS Binghamton, NY

Home | Current Version | Previous Version | Text Only | Print | Product List | Glossary On
Versions: 1 2 3 4 5 6 7 8 9 10 11 12 13 14 15 16 17 18 19 20 21 22 23 24 25 26 27 28 29 30 31 32 33 34 35 36 37 38 39 40 41 42 43 44 45 46 47 48 49
000
ASUS41 KBGM 100110
RWRBGM

REGIONAL WEATHER ROUNDUP
NATIONAL WEATHER SERVICE BINGHAMTON NY
800 PM EST TUE FEB 09 2016

Note: "fair" indicates few or no clouds below 12,000 feet with no
significant weather and/or obstructions to visibility.

* = Station(s) that does not report precipitation, such as rain,
snow, etc, also no thunder or fog.

!NYZ009-015>018-022>025-036-037-044>046-055>057-062-100200
...CENTRAL NEW YORK...

CITY           SKY/WX    TMP DP  RH WIND       PRES   REMARKS
BINGHAMTON     LGT SNOW  30  28  92 SW6       29.49S FOG     WCI  24
CORTLAND       LGT SNOW  32  32 100 CALM      29.51S VSB 1
DANSVILLE      CLOUDY    35  25  66 CALM      29.54S
ELMIRA         LGT SNOW  33  33 100 SW3       29.53R FOG
ITHACA         LGT SNOW  31  30  96 W6        29.52S FOG     WCI  25
HORNELL        CLOUDY    34  23  64 W8        29.56S WCI  27
MONTICELLO     CLOUDY    28  25  86 S3        29.54S
NORWICH        LGT SNOW  30  28  93 CALM      29.53S
ONEONTA        FLURRIES  28  25  86 SW3       29.49S
PENN YAN       CLOUDY    33  31  92 CALM      29.53R
ROME           LGT SNOW  27  25  92 E6        29.56F FOG     WCI  20
SIDNEY         CLOUDY    34  32  93 CALM      29.53S
SYRACUSE       LGT SNOW  28  28 100 CALM      29.54S VSB 1
$$

!PAZ038>040-043-044-047-048-072-100200
...NORTHEAST PENNSYLVANIA...

CITY           SKY/WX    TMP DP  RH WIND       PRES   REMARKS
HAZLETON       LGT SNOW  30  28  93 CALM      29.56S
SCRANTON       LGT SNOW  31  30  96 W6        29.55R FOG     WCI  25
$$
&&
KEY
WCI = WIND CHILL INDEX
VSB = VISIBILITY
HX  = HEAT INDEX
$$



USA.gov is the U.S. government's official web portal to all federal, state and local government web resources and services.